QPF
0.00 0.00 0.00 0.00 0.00 0.00 0.00 0.00 0.00 0.00 0.00 0.00 0.00 0.00 0.00 0.00 0.00 0.00 0.00 0.00 0.00 0.00 0.00 0.00 0.00 0.00 0.00 0.00 0.00 0.00 0.00 0.00 0.00 0.00 0.00 0.00 0.00 0.00 0.00 0.00 0.00 0.00 0.00 0.00
0.00 0.00 0.00 0.00 0.00 0.00 0.00 0.00 0.00 0.00 0.00 0.00 0.00 0.00 0.00 0.00 0.00 0.00 0.00 0.00 0.00 0.00 0.00 0.00 0.00 0.00 0.00 0.00 0.00 0.00 0.00 0.00 0.00 0.00 0.00 0.00 0.00 0.00 0.00 0.00 0.00 0.00 0.00 0.00
0.00 0.00 0.00 0.00 0.00 0.00 0.00 0.00 0.00 0.00 0.00 0.00 0.00 0.00 0.00 0.00 0.00 0.00 0.00 0.00 0.00 0.00 0.00 0.00 0.00 0.00 0.00 0.00 0.00 0.00 0.00 0.00 0.00 0.00 0.00 0.00 0.00 0.00 0.00 0.00 0.00 0.00 0.00 0.00
0.00 0.00 0.00 0.00 0.00 0.00 0.00 0.00 0.00 0.00 0.00 0.00 0.00 0.00 0.00 0.00 0.00 0.00 0.00 0.00 0.00 0.00 0.00 0.00 0.00 0.00 0.00 0.00 0.00 0.00 0.00 0.00 0.00 0.00 0.00 0.00 0.00 0.00 0.00 0.00 0.00 0.00 0.00 0.00
0.00 0.00 0.00 0.00 0.00 0.00 0.00 0.00 0.00 0.00 0.00 0.00 0.00 0.00 0.00 0.00 0.00 0.00 0.00 0.00 0.00 0.00 0.00 0.00 0.00 0.00 0.00 0.00 0.00 0.00 0.00 0.00 0.00 0.00 0.00 0.00 0.00 0.00 0.00 0.00 0.00 0.00 0.00 0.00
0.00 0.00 0.00 0.00 0.00 0.00 0.00 0.00 0.00 0.00 0.00 0.00 0.00 0.00 0.00 0.00 0.00 0.00 0.00 0.00 0.00 0.00 0.00 0.00 0.00 0.00 0.00 0.00 0.00 0.00 0.00 0.00 0.00 0.00 0.00 0.00 0.00 0.00 0.00 0.00 0.00 0.00 0.00 0.00
0.00 0.00 0.00 0.00 0.00 0.00 0.00 0.00 0.00 0.00 0.00 0.00 0.00 0.00 0.00 0.00 0.00 0.00 0.00 0.00 0.00 0.00 0.00 0.00 0.00 0.00 0.00 0.00 0.00 0.00 0.00 0.00 0.00 0.00 0.00 0.00 0.00 0.00 0.00 0.00 0.00 0.00 0.00 0.00
0.00 0.00 0.00 0.00 0.00 0.00 0.00 0.00 0.00 0.00 0.00 0.00 0.00 0.00 0.00 0.00 0.00 0.00 0.00 0.00 0.00 0.00 0.00 0.00 0.00 0.00 0.00 0.00 0.00 0.00 0.00 0.00 0.00 0.00 0.00 0.00 0.00 0.00 0.00 0.00 0.00 0.00 0.00 0.00
0.00 0.00 0.00 0.00 0.00 0.00 0.00 0.00 0.00 0.00 0.00 0.00 0.00 0.00 0.00 0.00 0.00 0.00 0.00 0.00 0.00 0.00 0.00 0.00 0.00 0.00 0.00 0.00 0.00 0.00 0.00 0.00 0.00 0.00 0.00 0.00 0.00 0.00 0.00 0.00 0.00 0.00 0.00 0.00
0.00 0.00 0.00 0.00 0.00 0.00 0.00 0.00 0.00 0.00 0.00 0.00 0.00 0.00 0.00 0.00 0.00 0.00 0.00 0.00 0.00 0.00 0.00 0.00 0.00 0.00 0.00 0.00 0.00 0.00 0.00 0.00 0.00 0.00 0.00 0.00 0.00 0.00 0.00 0.00 0.00 0.01 0.01 0.01
0.00 0.00 0.00 0.00 0.00 0.00 0.00 0.00 0.00 0.00 0.00 0.00 0.00 0.00 0.00 0.00 0.00 0.00 0.00 0.00 0.00 0.00 0.00 0.00 0.00 0.00 0.00 0.00 0.00 0.00 0.00 0.00 0.00 0.00 0.00 0.00 0.00 0.00 0.00 0.00 0.00 0.01 0.02 0.03
0.00 0.00 0.00 0.00 0.00 0.00 0.00 0.00 0.00 0.00 0.00 0.00 0.00 0.00 0.00 0.00 0.00 0.00 0.00 0.00 0.00 0.00 0.00 0.00 0.00 0.00 0.00 0.00 0.00 0.00 0.00 0.00 0.00 0.00 0.00 0.00 0.00 0.00 0.00 0.00 0.00 0.01 0.02 0.02
0.00 0.00 0.00 0.00 0.00 0.00 0.00 0.00 0.00 0.00 0.00 0.00 0.00 0.00 0.00 0.00 0.00 0.00 0.00 0.00 0.00 0.00 0.00 0.00 0.00 0.00 0.00 0.00 0.00 0.00 0.00 0.00 0.00 0.00 0.00 0.00 0.00 0.00 0.01 0.00 0.00 0.01 0.01 0.01
0.00 0.00 0.00 0.00 0.00 0.00 0.00 0.00 0.00 0.00 0.00 0.00 0.00 0.00 0.00 0.00 0.00 0.00 0.00 0.00 0.00 0.00 0.00 0.00 0.00 0.00 0.00 0.00 0.00 0.00 0.00 0.00 0.00 0.00 0.00 0.00 0.00 0.01 0.01 0.02 0.01 0.01 0.00 0.00
0.00 0.00 0.00 0.00 0.00 0.00 0.00 0.00 0.00 0.00 0.00 0.00 0.00 0.00 0.00 0.00 0.00 0.00 0.00 0.00 0.00 0.00 0.00 0.00 0.00 0.00 0.00 0.00 0.00 0.00 0.00 0.00 0.00 0.00 0.00 0.00 0.00 0.01 0.01 0.01 0.01 0.01 0.00 0.00
0.00 0.00 0.00 0.00 0.00 0.00 0.00 0.00 0.00 0.00 0.00 0.00 0.00 0.00 0.00 0.00 0.00 0.00 0.00 0.00 0.00 0.00 0.00 0.00 0.00 0.00 0.00 0.00 0.00 0.00 0.00 0.00 0.00 0.00 0.00 0.00 0.01 0.01 0.01 0.02 0.02 0.01 0.01 0.01
0.00 0.00 0.00 0.00 0.00 0.00 0.00 0.00 0.00 0.00 0.00 0.00 0.00 0.00 0.00 0.00 0.00 0.00 0.00 0.00 0.00 0.00 0.00 0.00 0.00 0.00 0.00 0.00 0.00 0.00 0.00 0.00 0.00 0.00 0.01 0.01 0.01 0.02 0.02 0.03 0.02 0.02 0.01 0.01
0.00 0.00 0.00 0.00 0.00 0.00 0.00 0.00 0.00 0.00 0.00 0.00 0.00 0.00 0.00 0.00 0.00 0.00 0.00 0.00 0.00 0.00 0.00 0.00 0.00 0.00 0.00 0.00 0.00 0.00 0.00 0.00 0.00 0.01 0.01 0.01 0.01 0.02 0.02 0.03 0.02 0.02 0.02 0.02
0.00 0.00 0.00 0.00 0.00 0.00 0.00 0.00 0.00 0.00 0.00 0.00 0.00 0.00 0.00 0.00 0.00 0.00 0.00 0.00 0.00 0.00 0.00 0.00 0.00 0.00 0.00 0.00 0.00 0.00 0.00 0.01 0.01 0.01 0.01 0.01 0.01 0.01 0.01 0.02 0.02 0.03 0.03 0.03
0.00 0.00 0.00 0.00 0.00 0.00 0.00 0.00 0.00 0.00 0.00 0.00 0.00 0.00 0.00 0.00 0.00 0.00 0.00 0.00 0.00 0.00 0.00 0.00 0.00 0.00 0.00 0.00 0.00 0.00 0.01 0.01 0.01 0.01 0.01 0.01 0.01 0.01 0.01 0.02 0.03 0.03 0.03 0.03
0.00 0.00 0.00 0.00 0.00 0.00 0.00 0.00 0.00 0.00 0.00 0.00 0.00 0.00 0.00 0.00 0.00 0.00 0.00 0.00 0.00 0.00 0.00 0.00 0.00 0.00 0.00 0.00 0.00 0.01 0.01 0.01 0.01 0.01 0.01 0.01 0.02 0.02 0.02 0.02 0.02 0.03 0.03 0.03
0.00 0.00 0.00 0.00 0.00 0.00 0.00 0.00 0.00 0.00 0.00 0.00 0.00 0.00 0.00 0.00 0.00 0.00 0.00 0.00 0.00 0.00 0.00 0.00 0.00 0.00 0.00 0.00 0.00 0.00 0.00 0.00 0.01 0.01 0.01 0.02 0.03 0.03 0.02 0.02 0.03 0.03 0.03 0.03
0.00 0.00 0.00 0.00 0.00 0.00 0.00 0.00 0.00 0.00 0.00 0.00 0.00 0.00 0.00 0.00 0.00 0.00 0.00 0.00 0.00 0.00 0.00 0.00 0.00 0.00 0.00 0.00 0.00 0.00 0.00 0.01 0.01 0.01 0.01 0.02 0.03 0.03 0.03 0.03 0.03 0.03 0.03 0.03
0.00 0.00 0.00 0.00 0.00 0.00 0.00 0.00 0.00 0.00 0.00 0.00 0.00 0.00 0.00 0.00 0.00 0.00 0.00 0.00 0.00 0.00 0.00 0.00 0.00 0.00 0.00 0.00 0.00 0.00 0.00 0.01 0.01 0.01 0.02 0.02 0.02 0.03 0.03 0.03 0.03 0.03 0.03 0.03
0.00 0.00 0.00 0.00 0.00 0.00 0.00 0.00 0.00 0.00 0.00 0.00 0.00 0.00 0.00 0.00 0.00 0.00 0.00 0.00 0.00 0.00 0.00 0.00 0.00 0.00 0.00 0.00 0.00 0.00 0.00 0.01 0.01 0.02 0.03 0.03 0.03 0.03 0.03 0.03 0.03 0.03 0.03 0.03
0.00 0.00 0.00 0.00 0.00 0.00 0.00 0.00 0.00 0.00 0.00 0.00 0.00 0.00 0.00 0.00 0.00 0.00 0.00 0.00 0.00 0.00 0.00 0.00 0.00 0.00 0.00 0.00 0.00 0.00 0.00 0.01 0.01 0.01 0.02 0.02 0.03 0.03 0.03 0.03 0.03 0.03 0.03 0.03
0.00 0.00 0.00 0.00 0.00 0.00 0.00 0.00 0.00 0.00 0.00 0.00 0.00 0.00 0.00 0.00 0.00 0.00 0.00 0.00 0.00 0.00 0.00 0.00 0.00 0.00 0.00 0.00 0.00 0.00 0.00 0.01 0.01 0.01 0.02 0.02 0.03 0.03 0.03 0.03 0.04 0.03 0.03 0.02
MSLP
1018.19 1018.48 1018.74 1018.97 1019.12 1019.20 1019.18 1019.07 1018.87 1018.61 1018.34 1018.10 1017.92 1017.86 1017.92 1018.11 1018.42 1018.81 1019.23 1019.65 1020.02 1020.32 1020.53 1020.64 1020.67 1020.62 1020.52 1020.36 1020.15 1019.90 1019.60 1019.25 1018.84 1018.39 1017.89 1017.36 1016.82 1016.28 1015.74 1015.21 1014.68 1014.15 1013.60 1013.03
1018.27 1018.42 1018.51 1018.55 1018.54 1018.48 1018.38 1018.24 1018.07 1017.90 1017.76 1017.66 1017.65 1017.73 1017.92 1018.20 1018.56 1018.96 1019.38 1019.78 1020.13 1020.40 1020.59 1020.70 1020.72 1020.67 1020.55 1020.37 1020.13 1019.84 1019.48 1019.06 1018.59 1018.06 1017.50 1016.90 1016.30 1015.70 1015.11 1014.52 1013.93 1013.34 1012.74 1012.13
1018.42 1018.40 1018.32 1018.19 1018.03 1017.85 1017.67 1017.51 1017.38 1017.30 1017.27 1017.31 1017.44 1017.65 1017.94 1018.30 1018.70 1019.12 1019.53 1019.91 1020.22 1020.47 1020.64 1020.73 1020.73 1020.66 1020.52 1020.31 1020.02 1019.67 1019.25 1018.77 1018.23 1017.65 1017.03 1016.39 1015.74 1015.10 1014.46 1013.82 1013.18 1012.54 1011.88 1011.20
1018.56 1018.39 1018.14 1017.86 1017.57 1017.30 1017.08 1016.91 1016.82 1016.82 1016.90 1017.06 1017.31 1017.63 1018.00 1018.41 1018.84 1019.27 1019.66 1020.01 1020.30 1020.52 1020.66 1020.72 1020.70 1020.59 1020.41 1020.14 1019.80 1019.39 1018.91 1018.37 1017.78 1017.15 1016.50 1015.83 1015.16 1014.49 1013.82 1013.15 1012.46 1011.76 1011.04 1010.30
1018.59 1018.28 1017.91 1017.52 1017.14 1016.81 1016.57 1016.42 1016.39 1016.46 1016.64 1016.91 1017.26 1017.66 1018.09 1018.54 1018.98 1019.40 1019.77 1020.09 1020.35 1020.53 1020.63 1020.64 1020.58 1020.42 1020.19 1019.86 1019.46 1018.99 1018.45 1017.86 1017.23 1016.58 1015.92 1015.24 1014.57 1013.90 1013.21 1012.51 1011.79 1011.03 1010.24 1009.44
1018.41 1018.02 1017.57 1017.11 1016.69 1016.36 1016.13 1016.04 1016.07 1016.23 1016.50 1016.86 1017.28 1017.74 1018.21 1018.68 1019.11 1019.51 1019.85 1020.13 1020.33 1020.46 1020.51 1020.48 1020.36 1020.15 1019.85 1019.47 1019.01 1018.48 1017.89 1017.27 1016.62 1015.96 1015.30 1014.64 1013.98 1013.31 1012.62 1011.90 1011.15 1010.35 1009.50 1008.63
1018.00 1017.57 1017.10 1016.63 1016.23 1015.93 1015.76 1015.74 1015.86 1016.11 1016.46 1016.90 1017.38 1017.88 1018.37 1018.83 1019.24 1019.59 1019.88 1020.10 1020.24 1020.31 1020.30 1020.21 1020.03 1019.76 1019.40 1018.96 1018.45 1017.88 1017.27 1016.63 1015.97 1015.32 1014.67 1014.02 1013.38 1012.72 1012.03 1011.30 1010.52 1009.68 1008.79 1007.86
1017.41 1016.98 1016.53 1016.11 1015.77 1015.54 1015.47 1015.54 1015.75 1016.10 1016.53 1017.03 1017.55 1018.07 1018.55 1018.98 1019.34 1019.64 1019.86 1020.00 1020.07 1020.07 1019.99 1019.84 1019.60 1019.27 1018.87 1018.39 1017.84 1017.24 1016.61 1015.96 1015.31 1014.66 1014.03 1013.40 1012.77 1012.11 1011.42 1010.68 1009.88 1009.01 1008.08 1007.11
1016.71 1016.33 1015.94 1015.60 1015.35 1015.24 1015.27 1015.45 1015.76 1016.19 1016.69 1017.24 1017.78 1018.29 1018.74 1019.12 1019.42 1019.64 1019.78 1019.84 1019.83 1019.74 1019.60 1019.38 1019.09 1018.72 1018.28 1017.77 1017.20 1016.59 1015.96 1015.31 1014.66 1014.02 1013.39 1012.77 1012.14 1011.48 1010.78 1010.02 1009.19 1008.29 1007.33 1006.34
1016.06 1015.74 1015.44 1015.20 1015.06 1015.05 1015.19 1015.47 1015.88 1016.38 1016.93 1017.50 1018.04 1018.52 1018.92 1019.24 1019.46 1019.58 1019.62 1019.59 1019.50 1019.34 1019.12 1018.85 1018.52 1018.12 1017.66 1017.15 1016.58 1015.97 1015.34 1014.70 1014.05 1013.41 1012.78 1012.14 1011.49 1010.80 1010.07 1009.29 1008.43 1007.51 1006.54 1005.53
1015.56 1015.32 1015.10 1014.96 1014.92 1015.02 1015.26 1015.62 1016.09 1016.63 1017.21 1017.77 1018.29 1018.73 1019.06 1019.30 1019.42 1019.45 1019.40 1019.27 1019.09 1018.86 1018.58 1018.27 1017.91 1017.50 1017.04 1016.53 1015.98 1015.39 1014.77 1014.14 1013.49 1012.84 1012.18 1011.51 1010.82 1010.10 1009.33 1008.50 1007.62 1006.67 1005.69 1004.68
1015.32 1015.14 1014.99 1014.92 1014.97 1015.14 1015.44 1015.85 1016.36 1016.92 1017.48 1018.02 1018.49 1018.86 1019.12 1019.27 1019.29 1019.22 1019.07 1018.86 1018.60 1018.30 1017.98 1017.64 1017.27 1016.86 1016.42 1015.94 1015.41 1014.85 1014.25 1013.62 1012.97 1012.30 1011.61 1010.90 1010.15 1009.37 1008.55 1007.68 1006.76 1005.80 1004.81 1003.81
1015.34 1015.19 1015.09 1015.07 1015.16 1015.38 1015.70 1016.13 1016.63 1017.17 1017.71 1018.20 1018.60 1018.90 1019.07 1019.12 1019.06 1018.89 1018.65 1018.36 1018.03 1017.68 1017.32 1016.96 1016.59 1016.19 1015.78 1015.33 1014.84 1014.31 1013.73 1013.12 1012.46 1011.77 1011.04 1010.28 1009.49 1008.65 1007.78 1006.86 1005.91 1004.94 1003.95 1002.96
1015.57 1015.44 1015.36 1015.36 1015.46 1015.68 1016.00 1016.41 1016.88 1017.37 1017.85 1018.27 1018.59 1018.80 1018.89 1018.85 1018.70 1018.45 1018.13 1017.77 1017.38 1016.99 1016.61 1016.23 1015.86 1015.49 1015.10 1014.69 1014.24 1013.74 1013.20 1012.59 1011.94 1011.23 1010.47 1009.67 1008.83 1007.95 1007.03 1006.08 1005.11 1004.12 1003.13 1002.16
1015.92 1015.79 1015.71 1015.71 1015.80 1015.99 1016.28 1016.64 1017.06 1017.48 1017.88 1018.22 1018.47 1018.59 1018.59 1018.47 1018.24 1017.92 1017.53 1017.11 1016.67 1016.24 1015.83 1015.45 1015.09 1014.73 1014.37 1013.99 1013.58 1013.12 1012.60 1012.02 1011.37 1010.66 1009.89 1009.06 1008.19 1007.27 1006.33 1005.36 1004.38 1003.39 1002.42 1001.46
1016.32 1016.18 1016.09 1016.07 1016.13 1016.28 1016.52 1016.82 1017.16 1017.51 1017.83 1018.08 1018.24 1018.28 1018.21 1018.01 1017.71 1017.32 1016.87 1016.40 1015.92 1015.46 1015.03 1014.63 1014.26 1013.92 1013.58 1013.23 1012.85 1012.42 1011.93 1011.38 1010.75 1010.05 1009.28 1008.45 1007.57 1006.65 1005.70 1004.73 1003.75 1002.78 1001.82 1000.88
1016.67 1016.53 1016.43 1016.39 1016.43 1016.54 1016.72 1016.95 1017.22 1017.48 1017.71 1017.88 1017.95 1017.91 1017.76 1017.49 1017.13 1016.68 1016.19 1015.67 1015.15 1014.65 1014.20 1013.78 1013.41 1013.07 1012.75 1012.42 1012.06 1011.66 1011.20 1010.68 1010.07 1009.40 1008.65 1007.84 1006.98 1006.07 1005.14 1004.19 1003.24 1002.29 1001.36 1000.45
1016.97 1016.83 1016.73 1016.68 1016.69 1016.76 1016.89 1017.05 1017.24 1017.42 1017.56 1017.63 1017.62 1017.51 1017.28 1016.95 1016.53 1016.04 1015.50 1014.94 1014.39 1013.86 1013.38 1012.95 1012.56 1012.22 1011.89 1011.57 1011.24 1010.86 1010.43 1009.94 1009.37 1008.73 1008.02 1007.24 1006.41 1005.54 1004.65 1003.74 1002.82 1001.91 1001.01 1000.14
1017.20 1017.08 1016.99 1016.94 1016.93 1016.96 1017.03 1017.13 1017.24 1017.33 1017.38 1017.36 1017.27 1017.08 1016.78 1016.40 1015.92 1015.39 1014.81 1014.22 1013.64 1013.10 1012.59 1012.14 1011.74 1011.39 1011.07 1010.75 1010.42 1010.07 1009.67 1009.20 1008.67 1008.07 1007.40 1006.67 1005.88 1005.06 1004.21 1003.35 1002.48 1001.62 1000.77 999.95
1017.39 1017.30 1017.23 1017.18 1017.15 1017.14 1017.16 1017.18 1017.21 1017.20 1017.16 1017.06 1016.87 1016.61 1016.25 1015.81 1015.30 1014.73 1014.13 1013.51 1012.92 1012.36 1011.84 1011.38 1010.98 1010.62 1010.29 1009.98 1009.66 1009.32 1008.94 1008.51 1008.01 1007.44 1006.81 1006.13 1005.39 1004.61 1003.82 1003.00 1002.19 1001.39 1000.60 999.83
1017.55 1017.49 1017.43 1017.38 1017.32 1017.28 1017.23 1017.18 1017.11 1017.01 1016.87 1016.67 1016.40 1016.06 1015.65 1015.16 1014.61 1014.03 1013.41 1012.80 1012.20 1011.64 1011.13 1010.67 1010.26 1009.91 1009.58 1009.27 1008.97 1008.64 1008.28 1007.86 1007.39 1006.86 1006.27 1005.62 1004.92 1004.19 1003.44 1002.68 1001.93 1001.18 1000.46 999.77
1017.69 1017.64 1017.58 1017.51 1017.42 1017.32 1017.20 1017.06 1016.89 1016.70 1016.46 1016.16 1015.82 1015.41 1014.94 1014.42 1013.85 1013.26 1012.65 1012.05 1011.47 1010.92 1010.43 1009.99 1009.59 1009.25 1008.94 1008.64 1008.34 1008.03 1007.68 1007.28 1006.83 1006.32 1005.75 1005.13 1004.47 1003.78 1003.07 1002.36 1001.66 1000.98 1000.33 999.71
1017.76 1017.71 1017.63 1017.52 1017.38 1017.21 1017.00 1016.77 1016.51 1016.21 1015.88 1015.50 1015.08 1014.62 1014.11 1013.57 1013.00 1012.42 1011.83 1011.25 1010.71 1010.20 1009.73 1009.32 1008.95 1008.63 1008.33 1008.05 1007.76 1007.46 1007.12 1006.74 1006.30 1005.81 1005.26 1004.66 1004.02 1003.36 1002.69 1002.03 1001.38 1000.76 1000.18 999.65
1017.71 1017.63 1017.51 1017.35 1017.15 1016.90 1016.61 1016.29 1015.94 1015.55 1015.14 1014.69 1014.22 1013.71 1013.18 1012.64 1012.08 1011.52 1010.96 1010.43 1009.93 1009.46 1009.04 1008.66 1008.32 1008.02 1007.75 1007.48 1007.21 1006.91 1006.58 1006.21 1005.78 1005.30 1004.76 1004.18 1003.57 1002.94 1002.30 1001.68 1001.08 1000.52 1000.02 999.56
1017.49 1017.38 1017.21 1016.98 1016.71 1016.39 1016.02 1015.62 1015.19 1014.74 1014.26 1013.77 1013.26 1012.74 1012.21 1011.67 1011.14 1010.61 1010.10 1009.61 1009.15 1008.73 1008.35 1008.00 1007.70 1007.42 1007.16 1006.91 1006.64 1006.36 1006.03 1005.66 1005.24 1004.77 1004.25 1003.69 1003.09 1002.49 1001.88 1001.30 1000.75 1000.25 999.81 999.43
1017.09 1016.92 1016.69 1016.41 1016.07 1015.69 1015.26 1014.81 1014.32 1013.83 1013.32 1012.81 1012.29 1011.78 1011.26 1010.75 1010.25 1009.76 1009.29 1008.85 1008.43 1008.04 1007.69 1007.37 1007.08 1006.82 1006.56 1006.31 1006.06 1005.77 1005.45 1005.09 1004.68 1004.22 1003.71 1003.16 1002.59 1002.02 1001.45 1000.90 1000.40 999.95 999.57 999.26
1016.52 1016.30 1016.02 1015.68 1015.30 1014.87 1014.41 1013.93 1013.43 1012.92 1012.41 1011.91 1011.41 1010.91 1010.43 1009.95 1009.49 1009.03 1008.60 1008.18 1007.79 1007.42 1007.08 1006.77 1006.49 1006.22 1005.96 1005.71 1005.45 1005.16 1004.84 1004.48 1004.08 1003.63 1003.14 1002.62 1002.07 1001.53 1000.99 1000.49 1000.03 999.63 999.30 999.04
Thickness
5607 5609 5606 5607 5607 5599 5593 5594 5593 5600 5598 5605 5600 5594 5587 5581 5575 5572 5569 5566 5562 5555 5549 5544 5540 5537 5533 5529 5525 5521 5516 5511 5507 5502 5496 5491 5485 5480 5474 5467 5460 5453 5446 5439
5600 5599 5594 5593 5598 5597 5595 5593 5590 5592 5595 5598 5592 5582 5576 5571 5567 5564 5561 5557 5552 5546 5540 5535 5530 5526 5522 5518 5513 5508 5502 5498 5493 5487 5481 5475 5469 5463 5457 5450 5442 5434 5426 5418
5582 5585 5587 5586 5602 5599 5594 5591 5589 5586 5590 5585 5579 5574 5569 5563 5559 5556 5552 5547 5541 5535 5529 5524 5519 5514 5509 5505 5500 5494 5489 5483 5478 5471 5465 5459 5453 5446 5438 5432 5425 5416 5408 5400
5568 5575 5572 5599 5604 5599 5592 5591 5585 5585 5580 5575 5572 5569 5563 5556 5550 5546 5542 5536 5530 5523 5518 5513 5508 5502 5497 5492 5485 5480 5474 5468 5461 5455 5449 5443 5435 5428 5420 5413 5406 5399 5393 5386
5550 5557 5567 5587 5593 5587 5582 5582 5581 5572 5568 5565 5560 5554 5548 5546 5541 5536 5531 5525 5517 5512 5506 5501 5495 5490 5484 5478 5472 5466 5460 5454 5446 5438 5432 5426 5418 5411 5403 5396 5391 5384 5379 5374
5540 5548 5557 5583 5590 5584 5578 5573 5572 5564 5557 5552 5546 5539 5536 5537 5530 5525 5519 5511 5506 5500 5494 5488 5483 5477 5470 5464 5458 5452 5447 5440 5431 5422 5413 5407 5401 5394 5387 5379 5375 5372 5369 5364
5535 5537 5554 5576 5578 5574 5564 5569 5562 5554 5548 5540 5533 5530 5527 5524 5518 5513 5507 5500 5495 5488 5481 5475 5470 5463 5456 5450 5444 5440 5433 5425 5416 5407 5397 5390 5385 5378 5371 5367 5364 5361 5360 5359
5529 5529 5551 5569 5562 5561 5561 5554 5549 5543 5538 5532 5526 5523 5517 5512 5506 5500 5493 5488 5482 5474 5468 5463 5456 5448 5442 5438 5434 5428 5420 5411 5403 5393 5383 5375 5369 5365 5359 5354 5353 5353 5353 5353
5548 5557 5556 5555 5555 5552 5545 5541 5538 5532 5528 5523 5517 5510 5505 5499 5492 5485 5479 5473 5467 5461 5455 5450 5443 5434 5428 5426 5420 5413 5405 5397 5389 5381 5372 5362 5355 5352 5350 5346 5343 5344 5344 5345
5533 5541 5544 5542 5539 5537 5535 5532 5527 5522 5516 5511 5504 5498 5491 5483 5476 5470 5465 5459 5454 5447 5442 5438 5432 5423 5416 5411 5405 5397 5390 5383 5375 5367 5362 5355 5348 5343 5340 5338 5337 5337 5337 5339
5526 5531 5530 5529 5527 5525 5522 5518 5513 5508 5503 5497 5491 5484 5478 5469 5463 5457 5452 5446 5440 5434 5429 5425 5419 5412 5404 5396 5388 5382 5375 5368 5361 5354 5348 5346 5343 5337 5334 5334 5329 5330 5332 5332
5524 5525 5518 5519 5517 5513 5509 5505 5499 5493 5488 5482 5476 5469 5464 5455 5449 5444 5438 5433 5427 5422 5416 5412 5406 5400 5392 5383 5373 5365 5360 5355 5348 5343 5339 5337 5335 5337 5335 5331 5331 5329 5328 5328
5512 5513 5509 5510 5504 5501 5496 5491 5485 5479 5474 5467 5462 5455 5450 5443 5437 5432 5426 5420 5415 5410 5404 5399 5393 5387 5380 5371 5361 5352 5344 5340 5337 5333 5330 5328 5327 5327 5331 5334 5330 5327 5326 5325
5499 5500 5497 5495 5489 5485 5482 5477 5471 5465 5460 5454 5447 5442 5435 5429 5424 5418 5414 5409 5403 5397 5391 5385 5380 5374 5367 5359 5350 5342 5335 5330 5327 5325 5322 5320 5319 5319 5319 5322 5325 5327 5325 5323
5487 5487 5484 5480 5474 5470 5466 5460 5455 5449 5445 5440 5434 5428 5422 5416 5412 5408 5404 5397 5391 5384 5379 5373 5368 5363 5356 5347 5339 5333 5327 5323 5320 5318 5317 5315 5314 5314 5314 5314 5316 5318 5320 5321
5474 5472 5469 5465 5461 5457 5452 5448 5442 5437 5431 5427 5421 5416 5411 5406 5401 5397 5391 5385 5378 5374 5368 5361 5357 5352 5344 5336 5330 5325 5321 5318 5316 5314 5312 5311 5310 5309 5309 5310 5311 5312 5313 5314
5461 5459 5456 5452 5448 5444 5439 5434 5428 5423 5417 5412 5409 5405 5399 5394 5390 5387 5383 5376 5369 5363 5355 5347 5344 5340 5333 5326 5320 5317 5315 5312 5311 5309 5307 5306 5305 5304 5305 5305 5306 5307 5308 5309
5450 5447 5444 5440 5432 5428 5425 5420 5414 5409 5404 5401 5397 5391 5385 5381 5378 5376 5372 5366 5358 5353 5345 5337 5333 5328 5323 5317 5313 5310 5307 5306 5305 5304 5303 5302 5301 5301 5301 5301 5302 5303 5306 5307
5434 5431 5428 5425 5420 5414 5409 5404 5400 5395 5391 5386 5382 5378 5374 5369 5364 5361 5356 5350 5343 5340 5340 5331 5325 5320 5314 5310 5308 5305 5302 5302 5301 5300 5299 5299 5298 5297 5297 5298 5299 5300 5301 5303
5419 5416 5413 5409 5405 5399 5394 5390 5386 5381 5377 5372 5367 5364 5361 5358 5351 5346 5342 5337 5331 5325 5325 5321 5316 5311 5307 5304 5302 5300 5298 5298 5296 5296 5295 5294 5294 5294 5295 5295 5297 5297 5299 5299
5404 5401 5397 5393 5389 5385 5380 5376 5371 5368 5365 5359 5353 5349 5347 5345 5339 5332 5326 5327 5327 5318 5314 5311 5307 5303 5300 5299 5299 5297 5295 5293 5291 5291 5290 5290 5290 5291 5292 5293 5294 5295 5296 5296
5388 5385 5382 5378 5375 5372 5368 5362 5357 5354 5350 5346 5341 5335 5332 5330 5327 5322 5317 5312 5313 5310 5306 5302 5298 5296 5296 5297 5295 5292 5290 5288 5287 5286 5286 5286 5286 5288 5290 5291 5292 5293 5293 5293
5374 5371 5367 5364 5360 5358 5354 5349 5344 5339 5335 5332 5327 5322 5318 5316 5311 5307 5310 5308 5301 5300 5297 5294 5292 5293 5293 5292 5289 5286 5284 5283 5283 5283 5282 5283 5283 5285 5287 5288 5290 5290 5290 5290
5359 5356 5353 5349 5343 5339 5337 5337 5332 5328 5322 5319 5315 5309 5303 5301 5302 5298 5294 5295 5293 5291 5289 5287 5287 5288 5288 5285 5282 5281 5280 5279 5279 5279 5280 5281 5282 5283 5284 5286 5287 5288 5288 5288
5344 5340 5336 5331 5327 5325 5323 5321 5318 5314 5309 5307 5304 5299 5293 5288 5287 5289 5286 5284 5283 5282 5281 5281 5281 5282 5280 5278 5277 5277 5276 5276 5276 5278 5278 5278 5279 5280 5282 5284 5285 5286 5286 5286
5329 5326 5323 5319 5314 5310 5307 5304 5301 5300 5296 5295 5296 5291 5285 5281 5278 5277 5276 5275 5274 5275 5274 5274 5274 5274 5274 5274 5273 5273 5273 5273 5273 5273 5274 5276 5277 5279 5280 5282 5283 5284 5284 5284
5314 5311 5308 5306 5302 5296 5291 5288 5286 5285 5282 5279 5280 5280 5275 5272 5270 5268 5268 5268 5268 5268 5268 5268 5269 5269 5269 5269 5269 5270 5270 5270 5270 5271 5272 5274 5275 5277 5279 5280 5282 5283 5283 5282